Wind_Speed
24 24 25 25 25 25 25 25 24 24 24 24 24 23 23 22 22 21 21 21 22 23 23 23 24 25 25 26 26 27 27 27 27 27 27 28 29 29 29 28 26 24 27 28 26 23 19 18 20 26 32 36 39 41 40 41 42 42 43 44 46 47 45
21 22 24 24 25 24 24 23 23 22 22 22 22 22 22 21 21 20 20 20 21 22 22 23 24 25 25 26 26 26 26 26 27 27 27 28 28 29 29 29 28 28 31 32 29 26 23 20 19 21 25 28 33 38 41 43 42 41 41 43 45 45 43
19 20 22 23 23 23 23 22 22 21 21 21 21 21 21 21 20 20 19 19 20 21 21 22 23 24 25 25 25 25 25 25 25 26 26 26 27 27 28 28 28 28 30 32 31 30 29 27 26 25 24 24 26 29 33 36 38 38 38 40 43 44 44
19 19 20 21 22 22 22 22 21 21 21 21 21 21 21 20 20 20 19 19 19 20 21 22 22 23 24 24 24 24 24 24 24 25 25 25 26 26 26 27 27 26 28 29 30 31 32 31 31 29 27 25 23 25 28 30 32 33 32 32 35 39 41
19 19 20 20 20 21 21 20 20 20 20 20 20 20 20 20 20 19 19 19 19 19 20 21 22 23 23 23 23 23 23 23 23 23 24 24 25 25 25 25 26 25 26 27 27 29 30 31 30 29 28 26 23 23 26 28 31 33 32 31 31 33 34
19 19 20 20 20 20 20 19 19 18 18 19 19 19 19 19 19 19 19 19 19 19 20 20 21 22 23 23 23 22 22 22 22 22 22 23 23 24 24 23 24 24 24 25 25 26 27 28 28 27 27 26 25 24 25 26 28 31 33 35 36 35 34
19 19 20 20 20 20 19 19 19 18 17 17 17 17 18 18 18 18 18 18 18 19 19 20 20 21 22 22 22 22 21 21 21 21 21 22 22 22 22 22 22 22 22 23 23 23 24 24 25 25 25 24 24 25 25 26 26 27 28 31 33 36 37
19 19 20 20 20 20 20 20 20 19 18 17 17 17 17 17 17 17 17 17 17 17 18 19 20 20 21 22 22 22 22 21 21 21 21 21 21 21 21 20 20 20 20 21 21 21 21 22 22 22 22 22 23 24 25 25 26 26 26 27 28 30 32
21 20 20 21 22 21 21 20 20 20 19 18 17 17 17 16 16 16 16 16 16 16 17 18 18 19 20 21 21 22 21 21 21 21 21 21 20 20 20 19 19 19 18 19 19 19 19 20 20 20 20 20 21 22 23 24 24 25 25 25 26 26 27
22 21 21 21 22 22 22 21 21 20 19 19 18 17 17 16 16 16 16 16 16 16 16 16 17 18 19 19 20 20 21 21 20 20 20 21 20 20 20 19 19 18 18 18 18 18 18 18 18 18 18 18 19 19 21 22 22 23 23 23 24 24 24
22 21 21 21 22 22 23 22 22 21 20 18 17 17 16 16 16 16 16 16 16 16 16 16 16 17 18 18 19 19 19 20 20 20 20 20 20 20 19 19 19 19 18 18 18 17 17 17 17 17 17 17 18 18 19 20 21 22 22 22 23 23 22
22 22 22 22 21 22 23 23 23 22 20 19 18 17 16 16 16 16 16 17 17 17 17 17 17 17 17 18 18 18 19 19 19 19 19 19 20 20 19 19 19 19 19 19 19 18 18 18 18 18 18 18 18 18 19 20 21 22 22 22 23 23 23
23 24 24 23 22 23 23 23 23 22 21 19 18 18 17 16 16 16 17 17 17 18 18 19 19 19 18 18 19 19 19 20 20 20 20 20 21 21 21 20 20 20 20 20 20 20 20 20 20 20 20 20 20 20 21 21 22 23 24 24 24 25 25
25 25 24 24 23 24 24 24 23 22 22 21 20 19 18 17 17 17 17 17 17 17 17 18 19 19 20 20 20 20 21 21 22 22 23 23 23 23 22 22 22 22 22 22 22 22 22 22 22 22 22 22 22 22 23 23 23 24 26 26 26 27 27
26 26 25 24 24 24 25 25 25 24 23 23 22 21 20 19 19 18 18 18 18 17 16 16 17 17 18 19 20 21 22 23 23 24 25 25 25 25 25 25 25 25 24 24 24 24 25 25 25 25 25 25 25 25 25 25 25 26 27 28 29 29 30
30 28 27 26 25 25 25 26 26 26 26 25 25 24 24 22 21 21 20 20 20 20 19 18 17 17 17 17 19 20 22 23 24 26 26 27 27 27 27 27 27 27 27 27 27 27 27 27 28 28 28 28 28 28 28 29 29 29 29 30 31 31 32
32 31 30 29 29 29 29 28 28 28 28 28 28 27 27 25 24 23 23 23 23 23 22 21 20 20 19 19 19 20 21 22 23 25 26 27 28 28 29 29 29 29 29 29 29 29 29 29 30 30 30 31 31 31 31 31 32 32 32 32 33 34 34
33 33 32 32 32 32 32 32 31 31 31 31 30 29 29 28 27 25 25 25 26 25 25 24 23 23 23 22 23 23 23 23 24 25 26 26 27 28 29 29 30 30 31 31 31 32 32 32 32 32 32 32 32 32 32 33 34 35 35 35 36 37 37
34 35 34 35 35 35 34 34 34 33 33 34 33 31 30 30 30 30 29 28 29 29 28 28 27 26 26 26 27 28 27 27 27 27 27 28 29 29 29 29 29 29 30 31 31 32 33 33 34 34 34 34 34 33 33 33 34 35 36 36 36 37 39
37 37 37 37 37 37 36 37 37 38 38 37 36 34 33 32 33 33 33 33 32 33 32 32 32 31 31 30 30 31 31 32 32 31 31 31 31 31 32 31 31 31 32 32 32 32 33 33 34 35 35 35 35 35 35 34 34 35 35 36 37 37 38
40 41 41 40 39 39 39 39 39 39 40 40 39 37 35 34 34 35 36 36 36 37 36 35 36 35 35 35 35 34 34 34 34 34 35 35 35 35 35 35 35 36 35 35 36 35 35 35 36 36 36 37 37 37 37 37 37 37 37 37 37 37 38
42 43 44 44 43 42 41 41 41 41 41 39 38 38 37 36 36 37 38 38 39 40 39 38 38 38 38 39 39 38 37 36 36 36 37 38 39 40 41 41 40 39 40 40 40 40 39 39 39 39 39 39 39 40 40 40 41 40 40 39 39 39 39
47 45 45 46 46 46 46 46 46 46 45 43 41 41 40 39 39 40 39 41 42 42 41 40 40 40 40 42 42 42 41 40 40 40 39 39 39 38 39 39 39 39 39 39 39 39 39 40 40 39 39 39 40 40 41 42 42 43 43 42 42 42 42
50 48 46 47 48 48 49 49 49 49 50 49 48 47 46 45 45 44 44 44 45 45 44 43 43 43 43 43 43 44 43 43 44 44 43 43 43 41 40 40 40 39 39 40 41 41 41 42 42 42 42 42 42 42 42 42 42 42 43 42 42 43 44
50 50 50 50 50 51 52 52 52 52 53 53 53 52 50 49 49 49 50 49 48 48 48 47 47 47 47 46 46 46 46 46 47 47 48 48 48 47 47 47 47 46 46 46 46 47 46 46 46 47 47 47 47 47 46 45 44 44 44 43 42 43 44
49 49 50 51 52 53 54 54 55 55 55 55 55 54 53 52 52 52 53 53 52 52 52 50 49 50 51 51 51 50 50 50 50 50 51 51 51 50 51 51 51 51 51 50 50 50 50 50 50 50 50 49 49 49 50 50 49 49 48 48 47 47 48
49 50 50 51 52 53 54 54 54 55 55 55 55 55 54 54 54 53 54 54 54 55 55 53 51 52 53 53 53 54 54 53 53 53 54 54 54 53 53 54 54 55 55 54 54 53 52 52 52 52 52 52 52 52 52 52 53 53 53 53 53 52 52
55 56 56 56 56 56 57 57 57 57 57 56 56 56 57 57 56 56 56 56 56 57 56 54 53 55 56 55 56 57 57 56 56 56 57 56 57 56 56 56 56 56 56 56 56 55 54 54 55 55 55 55 54 54 54 54 54 55 56 56 55 55 53
59 59 60 59 59 59 60 60 60 60 60 60 60 60 60 60 60 59 59 59 59 58 56 55 56 57 57 58 58 59 59 59 59 59 59 59 59 59 59 58 58 57 57 57 57 57 56 56 56 56 56 55 55 55 55 56 56 57 57 57 57 56 56
58 58 58 59 58 58 59 59 59 60 60 60 61 60 61 61 60 60 61 61 60 58 56 56 57 57 57 58 58 59 59 59 59 60 59 59 60 60 60 59 58 58 58 59 59 58 58 58 58 58 57 56 56 56 56 57 58 59 59 58 58 58 58
57 57 56 56 56 56 56 56 56 57 57 58 58 58 58 58 59 60 60 59 58 56 56 57 57 57 57 57 57 57 57 57 57 57 58 58 59 59 59 59 59 60 60 60 60 59 58 58 58 58 57 56 56 56 56 58 58 58 58 58 58 59 59
55 55 55 55 55 54 54 54 54 54 54 55 55 56 56 56 57 58 57 56 55 55 56 56 56 56 56 56 56 56 56 56 56 56 57 57 58 59 59 60 60 59 59 59 58 58 57 58 58 58 57 57 56 55 57 58 58 58 58 58 58 59 59
54 54 54 54 54 54 54 53 53 53 53 53 53 54 55 55 55 55 54 54 54 55 55 55 55 56 55 55 56 56 56 57 56 56 57 57 58 59 59 59 59 58 57 57 57 56 57 57 58 58 57 56 56 55 56 57 58 58 57 56 56 57 58
53 53 53 53 53 53 53 53 53 53 53 52 52 53 53 53 53 53 53 53 54 54 54 55 55 55 55 55 55 56 57 57 57 56 56 57 57 58 58 58 57 56 56 56 56 56 56 56 56 57 56 56 55 55 55 55 56 56 55 55 56 57 58
53 52 52 53 53 53 53 53 54 53 54 53 53 53 53 53 53 53 53 53 53 53 53 53 53 53 53 54 55 55 56 55 55 55 55 55 56 56 56 57 56 55 55 56 56 56 56 56 56 56 56 57 57 57 57 57 58 58 59 59 59 58 58
51 51 52 52 53 52 52 53 53 53 54 54 53 53 53 53 54 53 53 53 52 52 52 52 51 52 52 53 53 53 53 53 53 53 53 54 54 55 55 55 56 55 55 56 56 56 57 57 57 58 58 59 59 60 60 61 62 63 63 62 61 60 60
48 49 50 50 50 50 51 51 51 52 53 53 53 53 53 53 53 53 52 52 52 51 51 51 51 51 51 51 51 51 51 51 51 51 52 52 53 54 55 56 57 57 57 58 58 58 59 59 59 59 60 60 61 61 62 63 64 64 64 63 62 62 63
Wind_Direction
267 267 266 265 264 264 263 262 262 262 262 262 263 263 264 264 266 266 265 265 265 266 267 266 265 263 262 260 259 259 259 259 258 256 253 252 253 255 256 253 251 256 261 263 265 264 262 259 253 246 244 245 244 240 238 240 242 241 241 243 241 241 240
268 267 266 265 264 264 264 263 264 263 263 263 263 264 264 264 265 266 265 265 264 266 266 266 265 263 261 260 260 260 260 259 259 259 257 255 255 255 256 255 251 250 255 259 260 262 262 258 257 256 252 251 247 243 240 238 241 242 243 243 242 241 239
270 268 266 265 264 265 265 265 265 266 265 265 264 264 264 264 264 264 264 263 263 264 264 264 264 262 261 260 260 261 261 261 260 260 260 258 258 257 257 258 256 251 252 256 258 259 260 260 263 263 258 255 251 247 243 240 241 246 247 246 244 244 243
272 271 268 267 266 266 266 266 266 266 266 266 265 265 264 263 263 263 263 262 262 262 262 262 262 261 261 260 260 261 261 262 261 261 260 259 260 260 259 258 258 255 252 253 255 257 258 258 262 264 263 261 256 248 243 242 242 246 249 248 247 249 250
272 272 271 270 269 269 269 268 267 266 266 266 266 266 266 265 263 263 262 261 261 261 260 260 259 259 260 260 260 260 261 261 261 261 260 259 260 261 260 259 259 258 256 255 254 255 257 259 259 261 262 263 261 254 247 245 244 244 246 246 245 248 251
271 271 271 271 270 271 271 270 270 268 267 266 266 266 266 266 264 263 261 261 260 260 260 259 258 257 257 258 259 258 259 259 259 260 260 259 260 260 261 260 259 259 257 257 257 256 257 259 260 260 260 260 260 257 253 251 250 249 248 246 244 244 247
271 270 270 271 271 271 272 272 272 271 270 269 268 267 266 266 264 262 260 259 259 260 260 260 259 258 258 258 258 258 258 258 258 259 260 259 259 261 262 262 261 261 259 258 258 258 258 259 260 261 261 261 260 258 257 255 255 255 253 250 248 246 245
270 270 270 270 271 272 272 272 272 271 269 268 268 268 267 267 265 263 261 259 257 258 258 259 260 260 260 260 260 261 260 259 259 258 259 260 260 260 262 263 263 263 262 261 261 260 260 260 261 262 261 260 260 260 260 259 259 259 258 257 255 253 250
269 269 270 270 270 270 270 270 269 267 266 264 263 264 265 266 266 265 264 261 259 257 256 256 257 258 259 260 261 262 262 262 261 260 260 260 260 260 260 261 262 263 262 263 262 262 261 262 262 262 263 261 260 260 260 261 261 261 262 263 262 261 259
269 269 269 269 268 267 266 266 265 263 261 260 259 259 261 263 265 265 265 265 263 260 257 255 255 256 256 257 258 259 260 261 262 262 261 261 260 259 259 259 259 260 260 259 260 261 261 261 262 263 264 264 263 263 263 264 263 263 263 265 266 266 265
268 267 266 265 265 264 262 262 262 260 259 259 259 259 260 262 265 266 267 267 266 265 263 260 257 256 256 255 256 256 257 257 258 259 259 260 260 260 258 257 257 257 257 256 256 256 257 258 259 260 261 263 263 264 266 267 267 266 266 265 266 266 266
264 264 263 263 262 261 260 258 258 258 258 258 260 261 262 264 266 268 268 268 269 268 267 265 263 260 258 257 257 257 257 257 256 255 255 255 256 257 256 255 254 254 255 255 254 253 253 254 255 256 257 258 260 261 263 265 267 268 267 267 267 267 266
262 264 264 263 261 259 257 255 255 256 257 259 261 263 266 267 268 269 269 269 269 269 268 266 265 264 262 261 260 258 257 257 257 255 254 253 252 253 253 253 253 252 252 253 254 254 253 253 253 254 254 255 256 258 259 261 265 268 268 267 268 268 268
263 265 266 265 262 259 256 255 255 256 258 259 261 264 268 270 271 270 270 269 267 267 267 266 265 264 263 262 262 261 260 258 258 257 255 254 253 252 252 253 254 253 253 253 254 256 257 257 255 255 255 255 255 256 257 258 260 264 267 268 269 269 269
262 263 265 265 264 261 258 257 257 258 259 260 261 263 266 268 270 269 268 267 266 264 263 262 262 262 262 261 260 260 260 260 259 259 257 256 255 254 253 253 254 255 256 256 255 256 258 259 260 260 259 259 258 258 258 258 258 259 262 265 267 268 270
260 263 264 265 264 264 263 259 257 258 258 259 261 263 263 264 265 265 265 264 264 263 260 258 257 258 259 260 260 259 258 258 258 259 259 259 258 258 257 256 256 257 258 258 258 258 258 259 260 261 262 262 263 262 262 262 262 261 261 263 264 265 266
262 265 268 268 266 266 267 265 263 262 260 260 260 261 261 261 259 259 260 262 262 262 261 259 258 258 259 261 263 262 260 258 257 257 258 258 259 260 260 260 259 259 260 261 261 261 261 261 261 262 263 264 265 266 266 266 266 265 265 265 265 265 265
264 265 267 268 267 266 266 267 267 267 265 263 262 260 260 259 258 256 258 260 261 260 260 259 259 261 264 266 264 263 262 261 260 259 259 259 260 260 260 260 260 260 260 261 261 262 262 263 263 263 263 264 266 267 268 269 269 269 268 268 268 268 268
264 265 266 266 266 264 263 265 266 266 267 266 264 262 260 258 258 258 259 260 261 260 259 258 258 261 264 266 265 265 264 263 262 262 262 261 261 261 261 261 261 261 262 261 262 262 263 263 264 264 265 265 266 266 266 267 268 269 270 270 269 269 269
264 266 266 266 266 263 262 265 265 265 265 264 264 264 263 260 260 260 260 260 259 259 258 257 257 258 260 261 262 264 265 264 264 263 263 263 263 263 263 263 263 264 265 265 265 265 266 266 267 267 268 269 269 268 267 266 266 267 268 269 269 269 269
263 264 264 263 263 262 262 263 263 263 263 263 264 264 262 261 262 262 262 263 262 260 260 259 258 258 259 260 261 261 261 262 264 265 265 265 266 267 268 268 269 269 268 268 267 268 269 269 270 270 271 272 272 272 271 270 269 268 268 268 268 268 268
261 261 261 261 261 262 261 260 260 261 262 264 265 264 262 261 263 263 264 266 265 264 264 263 262 261 260 260 260 260 259 259 261 265 267 267 267 269 270 270 271 272 271 270 269 270 271 272 272 272 273 274 274 274 273 273 272 272 271 270 268 267 267
261 260 260 261 261 262 261 259 260 261 262 263 265 266 265 264 264 264 264 265 265 265 265 264 263 263 262 262 261 260 260 259 261 265 268 268 267 267 266 265 267 269 271 272 272 273 274 275 274 274 275 276 277 276 275 273 272 272 271 271 270 270 268
261 260 259 259 259 260 260 260 260 261 261 262 264 266 267 267 266 266 265 264 265 265 264 263 263 265 266 266 265 263 262 262 263 265 268 270 269 267 266 267 269 270 271 273 274 275 276 277 277 277 277 278 279 278 276 274 273 271 271 270 271 271 271
261 261 261 261 261 261 262 262 262 262 262 263 264 265 266 266 267 267 266 266 266 266 265 264 264 267 269 269 268 267 265 265 265 266 269 271 272 272 272 273 274 273 273 273 274 275 276 276 276 277 278 279 279 278 277 274 272 271 270 269 269 271 272
257 259 260 261 262 263 264 265 265 265 265 266 267 267 267 267 268 268 268 267 266 266 265 265 266 267 268 268 268 268 267 266 267 269 270 272 274 275 276 276 276 276 276 276 276 276 276 276 275 275 276 276 276 276 276 275 274 272 270 269 268 270 272
256 258 260 261 262 262 263 265 266 267 267 268 268 269 269 269 269 269 269 269 268 267 265 265 266 267 267 268 268 268 268 267 268 269 271 273 275 276 277 278 278 279 279 279 278 278 278 277 276 275 275 275 275 274 274 274 273 273 272 271 270 271 272
259 260 262 263 263 263 263 264 265 266 267 267 268 269 269 269 269 269 269 269 268 268 267 267 267 268 268 268 269 269 269 269 270 271 272 274 276 277 277 277 278 278 278 278 278 278 277 276 275 275 275 274 274 274 273 272 271 271 271 271 271 272 272
262 263 263 264 263 263 263 264 264 265 266 266 267 268 268 269 269 269 270 269 268 268 269 269 268 268 268 268 269 269 269 270 271 272 274 275 276 276 276 276 277 276 276 276 276 276 276 275 274 274 274 273 273 272 271 270 269 269 269 269 270 270 270
262 262 263 263 263 263 263 263 264 264 265 265 265 266 266 267 268 268 268 269 269 270 269 269 268 268 268 268 268 269 269 270 271 272 273 273 273 274 274 275 275 275 275 275 275 276 276 275 275 275 274 274 273 272 270 269 268 267 267 268 268 269 269
261 261 261 261 262 262 262 263 263 264 264 265 265 265 265 265 266 266 266 268 269 269 268 268 268 269 269 269 269 269 270 270 271 271 271 271 272 272 273 273 274 274 275 276 276 276 276 276 275 275 275 274 273 272 270 268 267 267 267 267 267 267 268
262 262 262 261 261 262 262 262 262 263 263 263 264 264 264 264 264 265 266 268 267 267 267 268 268 268 269 269 270 270 271 270 270 270 271 271 272 272 272 272 273 274 275 276 276 275 275 274 274 274 274 273 272 271 269 268 268 267 267 267 267 266 267
263 263 262 262 262 262 262 263 263 262 262 262 263 263 263 263 264 265 266 266 266 266 267 268 268 269 269 270 270 270 270 270 270 270 271 271 271 272 272 273 273 273 274 274 274 274 274 274 274 274 274 273 272 271 269 268 266 265 265 266 267 268 267
263 263 262 262 262 262 263 263 263 263 263 263 263 264 264 264 265 265 265 265 265 266 266 267 268 268 269 269 269 269 269 270 271 271 271 271 272 272 273 273 273 273 273 273 272 272 273 273 273 273 274 274 273 272 270 268 266 263 264 267 269 269 269
262 262 262 262 262 262 262 262 263 263 264 263 264 265 265 266 266 266 266 266 266 266 266 267 267 268 268 268 268 268 269 270 271 271 271 271 272 272 273 273 273 273 273 273 273 273 273 272 272 272 272 272 272 272 271 270 268 267 268 270 271 271 269
261 261 261 261 261 261 262 262 263 263 263 264 264 265 265 266 267 267 267 267 267 268 268 268 267 267 267 267 268 269 269 270 270 271 271 271 272 273 273 274 274 274 274 274 274 274 274 274 273 273 273 272 272 271 271 271 271 271 271 272 271 270 270
262 262 262 262 261 261 261 261 261 262 263 264 264 264 265 266 266 267 268 268 269 269 269 269 269 268 268 268 269 270 270 270 271 272 272 273 274 275 275 276 277 277 277 277 277 276 276 276 275 274 273 273 272 271 271 270 270 270 271 271 270 270 271
Height
5750 5750 5750 5750 5750 5750 5751 5751 5751 5751 5751 5751 5752 5752 5753 5753 5754 5755 5755 5756 5756 5756 5756 5756 5756 5756 5756 5756 5757 5757 5758 5758 5758 5759 5759 5760 5761 5761 5762 5763 5765 5766 5764 5764 5764 5765 5765 5765 5766 5767 5768 5769 5770 5771 5773 5773 5774 5776 5778 5780 5781 5782 5785
5747 5747 5747 5747 5748 5748 5748 5748 5748 5749 5749 5749 5749 5749 5750 5750 5751 5751 5752 5753 5753 5753 5753 5753 5753 5753 5753 5754 5754 5754 5755 5755 5755 5756 5756 5757 5758 5758 5758 5759 5762 5763 5761 5760 5761 5763 5763 5764 5764 5765 5765 5766 5766 5767 5769 5770 5770 5772 5774 5775 5775 5777 5781
5745 5745 5745 5745 5745 5745 5745 5745 5746 5746 5746 5746 5747 5747 5747 5747 5748 5748 5749 5750 5750 5751 5751 5751 5751 5751 5751 5751 5751 5752 5752 5753 5753 5753 5753 5754 5754 5755 5755 5756 5758 5759 5759 5758 5759 5760 5760 5761 5762 5762 5763 5763 5764 5765 5766 5767 5768 5768 5769 5770 5771 5773 5776
5743 5743 5743 5743 5743 5743 5743 5743 5743 5744 5744 5744 5744 5745 5745 5745 5746 5746 5747 5747 5748 5748 5748 5748 5748 5748 5748 5748 5749 5749 5749 5750 5750 5751 5751 5751 5751 5752 5753 5753 5754 5755 5756 5756 5757 5757 5757 5758 5760 5761 5761 5761 5762 5763 5763 5765 5766 5766 5767 5768 5769 5770 5771
5741 5741 5741 5741 5741 5741 5741 5741 5741 5742 5742 5742 5742 5743 5743 5743 5743 5744 5744 5745 5745 5745 5746 5746 5746 5746 5746 5746 5746 5746 5747 5747 5747 5748 5748 5748 5749 5749 5750 5750 5751 5752 5753 5754 5754 5754 5754 5755 5757 5758 5758 5759 5760 5760 5761 5762 5764 5764 5765 5766 5766 5767 5769
5738 5739 5739 5739 5739 5739 5739 5739 5739 5740 5740 5740 5740 5740 5741 5741 5741 5742 5742 5742 5743 5743 5743 5743 5744 5744 5743 5743 5743 5744 5744 5744 5745 5745 5745 5746 5746 5747 5747 5748 5748 5749 5750 5750 5751 5752 5752 5752 5753 5754 5755 5756 5757 5758 5758 5759 5760 5761 5762 5763 5763 5765 5766
5736 5737 5737 5737 5737 5737 5737 5737 5738 5738 5738 5738 5738 5738 5739 5739 5739 5740 5740 5740 5740 5740 5741 5741 5741 5741 5741 5741 5741 5741 5742 5742 5742 5743 5743 5743 5744 5744 5744 5745 5745 5746 5747 5748 5748 5749 5749 5750 5750 5751 5752 5753 5753 5754 5755 5756 5757 5757 5758 5759 5760 5761 5762
5734 5735 5735 5735 5735 5735 5735 5735 5735 5736 5736 5736 5736 5736 5736 5737 5737 5737 5737 5738 5738 5738 5738 5738 5739 5739 5739 5739 5739 5739 5739 5740 5740 5740 5741 5741 5741 5742 5742 5742 5743 5743 5744 5745 5746 5746 5747 5747 5748 5748 5749 5750 5750 5751 5752 5752 5753 5754 5755 5756 5756 5757 5758
5732 5732 5733 5733 5733 5733 5733 5733 5733 5733 5733 5733 5734 5734 5734 5734 5735 5735 5735 5736 5736 5736 5736 5736 5736 5736 5737 5737 5737 5737 5737 5737 5738 5738 5738 5739 5739 5740 5740 5740 5741 5741 5742 5742 5743 5744 5744 5745 5745 5746 5746 5747 5748 5748 5749 5749 5750 5751 5751 5752 5753 5754 5755
5730 5730 5730 5730 5730 5730 5730 5730 5730 5730 5731 5731 5731 5732 5732 5732 5733 5733 5733 5734 5734 5734 5734 5734 5734 5735 5735 5735 5735 5735 5735 5735 5735 5736 5736 5737 5737 5737 5738 5738 5739 5739 5740 5740 5741 5742 5742 5743 5743 5744 5744 5745 5745 5746 5746 5746 5747 5747 5748 5749 5749 5750 5751
5727 5727 5728 5728 5728 5727 5727 5728 5728 5728 5728 5729 5729 5730 5730 5730 5730 5731 5731 5732 5732 5732 5732 5733 5733 5733 5733 5733 5733 5733 5733 5733 5733 5734 5734 5734 5735 5735 5735 5736 5736 5737 5737 5738 5739 5739 5740 5741 5741 5742 5743 5743 5743 5743 5744 5744 5744 5744 5746 5746 5746 5747 5748
5724 5724 5725 5725 5725 5725 5725 5725 5725 5726 5726 5727 5727 5727 5728 5728 5729 5729 5729 5729 5730 5730 5730 5731 5731 5731 5731 5731 5731 5732 5732 5731 5732 5732 5732 5732 5732 5733 5733 5733 5734 5734 5735 5735 5736 5736 5737 5738 5739 5739 5740 5741 5741 5741 5742 5742 5741 5741 5742 5743 5743 5744 5745
5720 5721 5722 5722 5722 5722 5722 5723 5723 5724 5724 5725 5725 5725 5726 5726 5727 5727 5727 5727 5728 5728 5728 5729 5729 5729 5729 5730 5730 5730 5730 5730 5730 5730 5730 5730 5730 5730 5731 5731 5732 5732 5732 5733 5733 5733 5734 5735 5735 5736 5737 5737 5738 5738 5739 5739 5739 5739 5739 5740 5740 5740 5741
5717 5718 5719 5720 5720 5719 5719 5720 5721 5721 5722 5722 5723 5723 5724 5724 5725 5725 5725 5725 5725 5725 5726 5726 5726 5727 5727 5727 5728 5728 5728 5728 5728 5728 5728 5727 5728 5728 5728 5729 5729 5730 5730 5730 5731 5731 5731 5731 5732 5733 5733 5734 5735 5735 5736 5736 5737 5736 5736 5736 5737 5737 5737
5714 5715 5716 5717 5717 5717 5717 5717 5718 5719 5719 5720 5720 5721 5721 5721 5722 5722 5722 5722 5722 5722 5723 5723 5723 5723 5724 5724 5725 5725 5725 5725 5725 5725 5725 5725 5725 5725 5726 5726 5726 5727 5727 5728 5728 5729 5729 5729 5729 5730 5730 5730 5731 5732 5732 5733 5733 5734 5733 5733 5733 5733 5733
5711 5712 5713 5713 5714 5714 5714 5714 5715 5716 5716 5717 5717 5718 5718 5719 5719 5719 5719 5720 5720 5720 5720 5720 5720 5720 5720 5721 5721 5722 5722 5722 5722 5722 5722 5722 5722 5723 5723 5723 5724 5724 5724 5725 5725 5726 5726 5727 5727 5727 5727 5728 5728 5728 5729 5729 5729 5730 5730 5730 5730 5730 5730
5708 5709 5709 5710 5710 5710 5710 5711 5712 5712 5713 5713 5714 5714 5715 5715 5715 5716 5716 5716 5717 5717 5717 5718 5718 5718 5718 5718 5718 5718 5718 5719 5719 5719 5719 5720 5720 5720 5720 5721 5721 5721 5721 5721 5722 5722 5723 5723 5723 5724 5724 5725 5725 5725 5725 5725 5725 5726 5726 5726 5726 5726 5726
5704 5705 5705 5706 5706 5707 5707 5707 5708 5708 5709 5709 5710 5711 5711 5711 5712 5712 5713 5713 5714 5714 5715 5715 5715 5715 5715 5715 5715 5715 5715 5715 5716 5716 5716 5717 5717 5717 5717 5717 5718 5718 5718 5719 5719 5719 5719 5719 5719 5720 5720 5721 5722 5722 5722 5722 5722 5722 5722 5722 5722 5721 5721
5700 5700 5701 5702 5702 5703 5703 5703 5703 5704 5704 5705 5705 5706 5707 5708 5708 5708 5709 5710 5710 5710 5711 5712 5712 5712 5713 5713 5712 5712 5712 5712 5712 5712 5713 5713 5713 5713 5713 5714 5714 5714 5715 5715 5715 5716 5716 5716 5716 5716 5717 5717 5718 5718 5719 5719 5719 5718 5718 5719 5719 5718 5718
5696 5696 5697 5698 5698 5699 5699 5699 5699 5699 5700 5700 5700 5701 5703 5703 5704 5704 5705 5706 5706 5706 5707 5708 5709 5709 5709 5709 5709 5709 5709 5709 5709 5709 5709 5709 5709 5709 5709 5710 5710 5710 5711 5711 5711 5712 5712 5712 5712 5712 5713 5713 5713 5714 5714 5715 5715 5715 5714 5714 5715 5715 5715
5691 5691 5692 5693 5694 5694 5694 5695 5695 5695 5695 5694 5695 5696 5697 5698 5699 5699 5700 5700 5701 5702 5703 5704 5704 5705 5704 5705 5705 5705 5705 5705 5705 5705 5705 5705 5705 5705 5705 5706 5706 5706 5707 5707 5707 5707 5707 5708 5708 5708 5708 5708 5709 5709 5709 5710 5710 5710 5710 5710 5710 5710 5710
5685 5686 5687 5687 5688 5688 5689 5689 5689 5690 5689 5688 5690 5691 5691 5692 5693 5694 5695 5696 5696 5697 5698 5699 5700 5700 5700 5699 5700 5700 5701 5701 5701 5701 5701 5701 5701 5701 5701 5701 5701 5701 5702 5702 5702 5702 5702 5702 5703 5703 5703 5703 5703 5704 5704 5704 5705 5705 5705 5705 5705 5704 5705
5679 5680 5681 5682 5682 5683 5683 5683 5684 5684 5683 5683 5684 5685 5685 5687 5688 5689 5691 5691 5690 5691 5693 5694 5695 5695 5694 5694 5694 5695 5696 5696 5696 5696 5696 5696 5696 5696 5696 5696 5696 5696 5697 5696 5696 5697 5697 5697 5697 5698 5698 5698 5698 5698 5698 5699 5699 5699 5699 5699 5699 5699 5699
5673 5674 5675 5676 5676 5677 5677 5678 5678 5678 5678 5678 5679 5679 5680 5681 5682 5683 5684 5685 5684 5685 5687 5688 5688 5688 5689 5689 5689 5689 5690 5690 5690 5691 5691 5691 5691 5691 5691 5690 5691 5691 5692 5692 5691 5691 5691 5692 5691 5692 5692 5692 5692 5692 5693 5693 5693 5693 5693 5693 5694 5693 5693
5667 5668 5669 5669 5670 5670 5671 5671 5672 5673 5673 5673 5673 5674 5675 5676 5676 5676 5677 5678 5679 5679 5680 5682 5683 5683 5683 5683 5683 5684 5684 5684 5684 5684 5685 5685 5685 5685 5685 5685 5685 5685 5686 5686 5686 5686 5686 5686 5686 5685 5685 5686 5686 5686 5686 5686 5687 5687 5687 5687 5688 5688 5687
5662 5662 5663 5663 5663 5664 5664 5664 5665 5666 5666 5667 5667 5668 5669 5669 5670 5671 5670 5670 5672 5673 5673 5676 5677 5676 5677 5677 5677 5677 5677 5678 5678 5678 5678 5678 5678 5678 5677 5677 5677 5678 5678 5679 5679 5679 5679 5679 5679 5679 5679 5679 5679 5679 5679 5679 5679 5680 5680 5680 5681 5681 5681
5655 5656 5657 5657 5657 5658 5658 5658 5659 5659 5659 5660 5660 5661 5662 5662 5663 5664 5664 5664 5665 5665 5667 5670 5671 5669 5669 5670 5669 5669 5670 5671 5672 5671 5671 5671 5671 5671 5670 5670 5670 5670 5670 5671 5671 5671 5672 5671 5671 5671 5672 5672 5673 5672 5672 5672 5671 5671 5671 5672 5673 5674 5674
5648 5649 5650 5650 5651 5651 5651 5652 5652 5652 5653 5653 5653 5654 5654 5655 5656 5656 5657 5657 5657 5658 5661 5663 5663 5662 5662 5662 5662 5661 5662 5664 5664 5663 5664 5664 5663 5663 5663 5663 5663 5663 5663 5662 5663 5664 5664 5663 5662 5663 5664 5664 5665 5665 5665 5665 5664 5663 5663 5663 5664 5665 5666
5641 5642 5642 5643 5643 5644 5644 5644 5645 5645 5646 5646 5646 5647 5647 5647 5648 5649 5649 5649 5650 5652 5655 5656 5655 5654 5655 5655 5654 5654 5655 5657 5656 5656 5656 5657 5656 5656 5656 5656 5656 5655 5655 5654 5655 5656 5655 5654 5654 5654 5655 5656 5656 5657 5657 5656 5656 5655 5655 5655 5656 5657 5657
5633 5634 5635 5635 5635 5636 5636 5636 5637 5637 5638 5638 5639 5640 5640 5640 5640 5641 5640 5641 5643 5647 5648 5647 5646 5647 5647 5647 5647 5647 5648 5649 5649 5649 5649 5649 5648 5648 5648 5648 5648 5647 5647 5646 5647 5648 5647 5645 5645 5646 5646 5647 5648 5648 5648 5647 5646 5646 5647 5647 5648 5648 5648
5626 5627 5627 5628 5628 5628 5629 5629 5629 5630 5630 5630 5631 5631 5632 5633 5633 5632 5633 5635 5637 5639 5638 5638 5639 5640 5639 5640 5640 5640 5641 5642 5641 5641 5641 5641 5641 5641 5641 5640 5640 5639 5639 5638 5639 5640 5639 5637 5637 5638 5638 5639 5639 5640 5639 5638 5637 5638 5638 5639 5639 5639 5639
5618 5619 5619 5620 5620 5621 5621 5622 5622 5623 5623 5623 5624 5624 5624 5625 5624 5626 5628 5630 5630 5630 5630 5631 5632 5632 5632 5632 5632 5632 5633 5633 5633 5633 5633 5633 5633 5632 5632 5632 5632 5632 5632 5631 5631 5631 5630 5629 5629 5629 5629 5630 5631 5631 5630 5629 5629 5629 5629 5630 5630 5630 5630
5611 5611 5611 5612 5612 5613 5613 5614 5614 5615 5615 5616 5616 5616 5616 5617 5618 5620 5622 5622 5622 5623 5623 5623 5624 5624 5625 5625 5625 5625 5624 5624 5625 5626 5625 5625 5624 5624 5623 5623 5623 5624 5624 5623 5623 5622 5621 5621 5620 5620 5620 5620 5621 5621 5621 5621 5621 5621 5621 5621 5621 5621 5621
5603 5603 5604 5604 5605 5605 5606 5606 5606 5607 5607 5608 5609 5608 5609 5611 5612 5613 5614 5615 5615 5616 5616 5617 5617 5618 5618 5618 5617 5617 5616 5617 5617 5618 5617 5617 5616 5616 5615 5614 5615 5616 5616 5615 5614 5614 5614 5613 5613 5612 5611 5611 5610 5611 5611 5611 5612 5612 5612 5613 5612 5612 5612
5595 5596 5596 5597 5597 5598 5599 5598 5599 5599 5600 5600 5601 5601 5602 5603 5604 5605 5607 5608 5608 5609 5609 5610 5611 5611 5611 5610 5609 5609 5609 5610 5610 5610 5610 5609 5608 5608 5608 5606 5606 5608 5608 5606 5606 5606 5606 5605 5605 5604 5604 5602 5602 5601 5601 5602 5602 5602 5603 5602 5602 5602 5602
5588 5589 5589 5589 5590 5591 5591 5591 5592 5592 5592 5593 5594 5594 5595 5596 5596 5597 5599 5600 5601 5602 5602 5603 5603 5603 5603 5603 5603 5603 5603 5603 5603 5602 5602 5602 5601 5601 5600 5599 5598 5599 5599 5598 5598 5597 5597 5596 5596 5595 5595 5594 5593 5592 5592 5592 5592 5592 5592 5592 5591 5592 5591
5581 5582 5582 5582 5583 5584 5584 5584 5585 5585 5585 5586 5587 5587 5588 5589 5589 5590 5592 5593 5594 5594 5594 5595 5595 5595 5596 5596 5596 5596 5596 5596 5596 5595 5595 5594 5594 5593 5592 5591 5590 5590 5590 5589 5589 5588 5588 5587 5586 5586 5585 5584 5583 5583 5582 5582 5582 5581 5581 5581 5581 5581 5581